Location: *
(49.5667°N, 1.3667°W)
Time: 14:43:01
(UTC+00:00)

ADEOS Rocket - Pass Details

Date: 20 September 2019
Orbit: 859 x 1306 km, 98.7° (Epoch: 20 October)

Event Time Altitude Azimuth Distance (km) Brightness Sun altitude
Rises 20:21:04 0° 14° (NNE) 4,055 6.4 -21.4°
Reaches altitude 10° 20:23:35 10° 15° (NNE) 3,142 5.8 -21.7°
Maximum altitude 20:30:57 90° 302° (WNW) 1,272 3.5 -22.7°
Drops below altitude 10° 20:38:43 10° 198° (SSW) 3,311 5.6 -23.8°
Sets 20:41:26 0° 198° (SSW) 4,284 6.2 -24.2°
